IDEFIX & ARIANE 42P R/B

Last updated on Mon Oct 27 2025 00:02:14 GMT+0000 (Coordinated Universal Time)

1 27422U 02021B 25299.38391455 .00000464 00000+0 19322-3 0 9990 2 27422 98.5709 234.7086 0010907 219.2337 140.8056 14.30898103224819
UTC large
Height (km)
Speed (km/s)
/
Latitude / Longitude
Inclination (degrees)
Orbital Period (minutes)
Azimuth
Elevation
Range (km)
Doppler Factor

Next 0 passes for location: London (51.5072 / 0.1276)

Sorry there are no passes over London.